Location: Buena Vista
(37.7110°N, 119.7938°W)
Time: 14:47:41
(UTC+00:00)

NOAA 19 - Visible Passes

Search period start: 04 October 2024 00:00
Search period end: 14 October 2024 00:00
Orbit: 839 x 858 km, 99.0° (Epoch: 04 October)

Date Brightness Start Highest point End Pass type
(mag) Time Alt. Az. Time Alt. Az. Time Alt. Az.
04 Oct 7.6 05:06:00 16° NNW 05:06:00 16° NNW 05:07:00 10° NNW visible
05 Oct 7.5 04:53:33 16° N 04:53:33 16° N 04:54:33 10° N visible
06 Oct 7.5 04:41:05 15° N 04:41:05 15° N 04:42:02 10° N visible
07 Oct 7.5 04:28:37 15° N 04:28:37 15° N 04:29:29 10° N visible
08 Oct 7.5 04:16:08 13° N 04:16:08 13° N 04:16:50 10° N visible
09 Oct 7.5 04:03:40 12° NNE 04:03:40 12° NNE 04:04:07 10° N visible
10 Oct 7.6 03:51:11 10° NNE 03:51:11 10° NNE 03:51:18 10° NNE visible
